Gustavus, AK

8:55 AM AKDT on April 27, 2017 (GMT -0800)
Gustavus

Weather History for PAGS - September, 2011

Change the Weather History Date:

Wednesday, September 14, 2011

  Actual Average Record
Temperature  
Mean Temperature 53 °F -  
Max Temperature 55 °F 58 °F 72 °F (1986)
Min Temperature 51 °F 41 °F 27 °F (1986)
Degree Days  
Heating Degree Days 12    
Growing Degree Days 3 (Base 50)    
Moisture  
Dew Point 50 °F    
Average Humidity 85    
Maximum Humidity 94    
Minimum Humidity 77    
Precipitation  
Precipitation 0.00 in - - ()
Sea Level Pressure  
Sea Level Pressure 29.94 in    
Wind  
Wind Speed 5 mph (SE)    
Max Wind Speed 15 mph    
Max Gust Speed 26 mph    
Visibility 9 miles    
Events      
Averages and records for this station are not official NWS values.
T = Trace of Precipitation, MM = Missing Value Source: NWS Daily Summary

Daily Weather History Graph

Daily Weather History Graph

Search for Another Location

Airport or City:

Trip Planner

Search our weather history database for the weather conditions in past years. The results will help you decide how hot, cold, wet, or windy it might be!

Date:

Astronomy

Sep. 14, 2011 Rise Set
Actual Time 6:29 AM AKDT 7:25 PM AKDT
Civil Twilight 5:49 AM AKDT 8:05 PM AKDT
Nautical Twilight 4:59 AM AKDT 8:55 PM AKDT
Astronomical Twilight 4:04 AM AKDT 9:49 PM AKDT
Moon 7:19 PM AKDT (9/14) 9:37 AM AKDT (9/14)
Length of Visible Light 14h 16m
Length of Day
12h 55m
Waning Gibbous, 95% of the Moon is Illuminated
Sep 14
Waning Gibbous
Sep 20
Last Quarter
Sep 27
New
Oct 3
First Quarter
Oct 11
Full

Hourly Weather History & Observations

Time (AKDT) Temp. Dew Point Humidity Pressure Visibility Wind Dir Wind Speed Gust Speed Precip Events Conditions
12:16 AM 55.4 °F 50.0 °F 82% 30.03 in 10.0 mi SE 8.1 mph - N/A   Overcast
12:36 AM 55.4 °F 51.8 °F 88% 30.02 in 8.0 mi SE 5.8 mph - N/A   Overcast
12:56 AM 55.4 °F 51.8 °F 88% 30.02 in 10.0 mi Calm Calm - N/A   Overcast
1:16 AM 55.4 °F 51.8 °F 88% 30.01 in 7.0 mi SE 4.6 mph - N/A   Overcast
1:36 AM 55.4 °F 51.8 °F 88% 29.99 in 10.0 mi East 3.5 mph - N/A   Overcast
1:56 AM 55.4 °F 51.8 °F 88% 29.99 in 10.0 mi Calm Calm - N/A   Overcast
2:16 AM 53.6 °F 51.8 °F 94% 29.99 in 10.0 mi Calm Calm - N/A   Overcast
2:36 AM 55.4 °F 51.8 °F 88% 29.99 in 10.0 mi Calm Calm - N/A   Overcast
2:56 AM 55.4 °F 51.8 °F 88% 29.98 in 10.0 mi Calm Calm - N/A   Overcast
3:16 AM 55.4 °F 51.8 °F 88% 29.97 in 10.0 mi NW 3.5 mph - N/A   Overcast
3:36 AM 55.4 °F 51.8 °F 88% 29.97 in 10.0 mi Calm Calm - N/A   Overcast
3:56 AM 55.4 °F 50.0 °F 82% 29.97 in 10.0 mi ENE 3.5 mph - N/A   Overcast
4:16 AM 55.4 °F 51.8 °F 88% 29.97 in 10.0 mi SSE 3.5 mph - N/A   Overcast
4:36 AM 53.6 °F 51.8 °F 94% 29.96 in 10.0 mi ENE 3.5 mph - N/A   Overcast
4:56 AM 55.4 °F 50.0 °F 82% 29.96 in 9.0 mi East 3.5 mph - N/A   Overcast
5:16 AM 55.4 °F 48.2 °F 77% 29.96 in 10.0 mi ESE 4.6 mph - N/A   Overcast
5:36 AM 53.6 °F 48.2 °F 82% 29.95 in 10.0 mi ESE 5.8 mph - N/A   Overcast
5:56 AM 53.6 °F 48.2 °F 82% 29.95 in 10.0 mi SE 12.7 mph - N/A   Overcast
6:16 AM 53.6 °F 46.4 °F 77% 29.95 in 10.0 mi SE 15.0 mph 26.5 mph N/A   Overcast
6:36 AM 53.6 °F 46.4 °F 77% 29.94 in 10.0 mi SE 11.5 mph 17.3 mph N/A   Overcast
6:56 AM 51.8 °F 46.4 °F 82% 29.94 in 9.0 mi SE 11.5 mph - N/A   Overcast
7:16 AM 53.6 °F 46.4 °F 77% 29.93 in 8.0 mi ESE 8.1 mph - N/A   Overcast
7:36 AM 53.6 °F 48.2 °F 82% 29.93 in 10.0 mi ESE 10.4 mph - N/A   Overcast
7:56 AM 53.6 °F 48.2 °F 82% 29.92 in 9.0 mi ESE 8.1 mph - N/A   Overcast
8:16 AM 53.6 °F 48.2 °F 82% 29.92 in 10.0 mi ESE 9.2 mph - N/A   Overcast
8:36 AM 53.6 °F 48.2 °F 82% 29.92 in 10.0 mi ESE 9.2 mph - N/A   Overcast
8:56 AM 53.6 °F 48.2 °F 82% 29.92 in 10.0 mi SE 8.1 mph - N/A   Overcast
9:16 AM 53.6 °F 48.2 °F 82% 29.91 in 10.0 mi ESE 6.9 mph - N/A   Overcast
9:36 AM 53.6 °F 48.2 °F 82% 29.91 in 10.0 mi ESE 8.1 mph - N/A   Overcast
9:56 AM 53.6 °F 48.2 °F 82% 29.91 in 10.0 mi SE 9.2 mph - N/A   Overcast
10:16 AM 53.6 °F 50.0 °F 88% 29.91 in 10.0 mi SE 8.1 mph - N/A   Overcast
10:36 AM 53.6 °F 50.0 °F 88% 29.91 in 10.0 mi SE 6.9 mph - N/A   Overcast
10:56 AM 55.4 °F 50.0 °F 82% 29.90 in 10.0 mi SE 5.8 mph - N/A   Overcast
11:16 AM 55.4 °F 50.0 °F 82% 29.90 in 10.0 mi SSE 5.8 mph - N/A   Overcast
11:36 AM 55.4 °F 50.0 °F 82% 29.91 in 9.0 mi SSE 5.8 mph - N/A   Overcast
11:56 AM 55.4 °F 50.0 °F 82% 29.91 in 10.0 mi SSE 4.6 mph - N/A   Overcast
12:16 PM 55.4 °F 50.0 °F 82% 29.91 in 7.0 mi SE 8.1 mph - N/A   Overcast
12:36 PM 55.4 °F 51.8 °F 88% 29.91 in 6.0 mi SSE 3.5 mph - N/A   Overcast
12:56 PM 55.4 °F 51.8 °F 88% 29.91 in 10.0 mi ESE 5.8 mph - N/A   Overcast
1:16 PM 55.4 °F 51.8 °F 88% 29.91 in 10.0 mi East 5.8 mph - N/A   Overcast
1:36 PM 55.4 °F 51.8 °F 88% 29.91 in 9.0 mi ESE 4.6 mph - N/A   Overcast
1:56 PM 55.4 °F 51.8 °F 88% 29.91 in 10.0 mi SE 4.6 mph - N/A   Overcast
2:16 PM 55.4 °F 51.8 °F 88% 29.91 in 8.0 mi ESE 6.9 mph - N/A   Overcast
2:36 PM 55.4 °F 51.8 °F 88% 29.91 in 4.0 mi ESE 4.6 mph - N/A   Overcast
2:56 PM 53.6 °F 51.8 °F 94% 29.91 in 10.0 mi SW 6.9 mph - N/A   Overcast
3:16 PM 53.6 °F 50.0 °F 88% 29.91 in 10.0 mi SW 6.9 mph - N/A   Overcast
3:36 PM 53.6 °F 50.0 °F 88% 29.91 in 3.0 mi WSW 5.8 mph - N/A   Overcast
3:56 PM 51.8 °F 50.0 °F 94% 29.91 in 3.0 mi SSW 5.8 mph - N/A   Overcast
4:16 PM 51.8 °F 48.2 °F 88% 29.91 in 5.0 mi SW 3.5 mph - N/A   Overcast
4:36 PM 51.8 °F 48.2 °F 88% 29.91 in 2.5 mi SSW 3.5 mph - N/A   Overcast
4:56 PM 51.8 °F 48.2 °F 88% 29.91 in 3.0 mi Calm Calm - N/A   Overcast
5:16 PM 53.6 °F 48.2 °F 82% 29.91 in 10.0 mi Calm Calm - N/A   Overcast
5:36 PM 53.6 °F 48.2 °F 82% 29.91 in 10.0 mi WSW 3.5 mph - N/A   Overcast
5:56 PM 53.6 °F 48.2 °F 82% 29.91 in 10.0 mi WSW 5.8 mph - N/A   Overcast
6:16 PM 51.8 °F 46.4 °F 82% 29.91 in 10.0 mi SSW 3.5 mph - N/A   Overcast
6:36 PM 51.8 °F 46.4 °F 82% 29.91 in 10.0 mi South 4.6 mph - N/A   Overcast
6:56 PM 51.8 °F 46.4 °F 82% 29.92 in 10.0 mi Calm Calm - N/A   Overcast
7:16 PM 51.8 °F 46.4 °F 82% 29.91 in 10.0 mi Calm Calm - N/A   Mostly Cloudy
7:36 PM 51.8 °F 46.4 °F 82% 29.91 in 10.0 mi SSW 3.5 mph - N/A   Clear
7:56 PM 50.0 °F 46.4 °F 87% 29.92 in 10.0 mi Calm Calm - N/A   Clear
8:16 PM 48.2 °F 46.4 °F 93% 29.92 in 8.0 mi Calm Calm - N/A   Clear
8:36 PM 50.0 °F 44.6 °F 82% 29.91 in 10.0 mi Calm Calm - N/A   Clear
8:56 PM 50.0 °F 44.6 °F 82% 29.91 in 10.0 mi Calm Calm - N/A   Clear
9:16 PM 48.2 °F 44.6 °F 87% 29.91 in 10.0 mi Calm Calm - N/A   Partly Cloudy
9:36 PM 46.4 °F 44.6 °F 93% 29.92 in 4.0 mi Calm Calm - N/A   Scattered Clouds
9:56 PM 46.4 °F 44.6 °F 93% 29.92 in 3.0 mi Calm Calm - N/A   Scattered Clouds
10:16 PM 46.4 °F 44.6 °F 93% 29.92 in 0.5 mi Calm Calm - N/A   Overcast
10:36 PM 46.4 °F 42.8 °F 87% 29.92 in 2.5 mi Calm Calm - N/A   Scattered Clouds
10:56 PM 44.6 °F 42.8 °F 93% 29.92 in 0.5 mi Calm Calm - N/A   Mostly Cloudy
11:16 PM 44.6 °F 42.8 °F 93% 29.92 in 2.5 mi Calm Calm - N/A   Scattered Clouds
11:36 PM 44.6 °F 41.0 °F 87% 29.92 in 1.2 mi Calm Calm - N/A   Scattered Clouds
11:56 PM 44.6 °F 42.8 °F 93% 29.92 in 1.5 mi Calm Calm - N/A   Scattered Clouds